Location: Wells
(51.2093°N, 2.6446°W)
Time: 05:50:42
(UTC+01:00)

ITUPSAT 1 - Pass Details

Date: 19 March 2026
Orbit: 686 x 698 km, 98.4° (Epoch: 15 April)

Event Time Altitude Azimuth Distance (km) Brightness Sun altitude
Rises 00:30:21 0° 10° (N) 3,074 ? -39.4°
Reaches altitude 10° 00:32:40 10° 4° (N) 2,152 ? -39.3°
Enters shadow 00:33:38 16° 360° (N) 1,794 ? -39.3°
